Total_Precipitation_Accumulation
0.35 0.30 0.39 0.46 0.42 0.46 0.64 0.63 0.56 0.35 0.32 0.34 0.33 0.38 0.41 0.44 0.45 0.45 0.45 0.52 0.66 0.76 0.75 0.76 0.77 0.78 0.76 0.79 0.91 0.98 0.96 1.05 1.13 1.26 1.33 1.29 1.25 1.28 1.38 1.49 1.54 1.59 1.60 1.54
0.37 0.22 0.29 0.36 0.30 0.31 0.35 0.31 0.30 0.24 0.28 0.31 0.31 0.31 0.33 0.34 0.39 0.43 0.44 0.48 0.55 0.64 0.70 0.79 0.86 0.88 0.84 0.82 0.87 0.95 0.94 1.00 1.04 1.18 1.31 1.31 1.24 1.27 1.40 1.49 1.50 1.52 1.57 1.56
0.67 0.29 0.51 0.59 0.37 0.33 0.34 0.32 0.30 0.35 0.36 0.30 0.27 0.30 0.36 0.37 0.39 0.42 0.43 0.44 0.46 0.56 0.68 0.77 0.85 0.87 0.88 0.85 0.88 0.95 0.96 0.98 1.02 1.15 1.22 1.29 1.28 1.30 1.41 1.50 1.50 1.49 1.50 1.52
1.09 0.75 1.03 0.55 0.28 0.28 0.32 0.34 0.32 0.32 0.28 0.28 0.32 0.35 0.41 0.41 0.44 0.43 0.46 0.47 0.47 0.55 0.67 0.70 0.76 0.80 0.84 0.80 0.92 0.98 0.98 0.97 1.01 1.09 1.13 1.24 1.29 1.31 1.43 1.50 1.46 1.45 1.47 1.46
1.48 1.04 0.55 0.31 0.28 0.38 0.47 0.46 0.35 0.28 0.21 0.20 0.24 0.31 0.39 0.36 0.40 0.45 0.47 0.51 0.52 0.56 0.64 0.63 0.69 0.75 0.80 0.77 0.85 0.93 0.97 0.92 0.94 1.01 1.06 1.16 1.23 1.31 1.40 1.50 1.46 1.41 1.38 1.43
1.62 1.17 0.58 0.38 0.26 0.29 0.43 0.60 0.35 0.26 0.25 0.23 0.27 0.43 0.45 0.39 0.38 0.39 0.39 0.45 0.52 0.54 0.57 0.59 0.64 0.68 0.72 0.77 0.80 0.88 0.93 0.85 0.88 0.95 0.99 1.09 1.15 1.24 1.32 1.36 1.38 1.39 1.34 1.35
1.35 1.06 0.44 0.30 0.26 0.31 0.66 0.73 0.39 0.33 0.33 0.34 0.42 0.49 0.44 0.41 0.42 0.43 0.43 0.44 0.47 0.49 0.53 0.58 0.61 0.63 0.66 0.74 0.80 0.84 0.92 0.85 0.87 0.91 0.95 1.03 1.11 1.13 1.21 1.28 1.30 1.37 1.36 1.33
1.03 1.13 0.58 0.32 0.38 0.66 0.77 0.44 0.35 0.34 0.33 0.36 0.37 0.35 0.34 0.37 0.43 0.50 0.48 0.44 0.46 0.48 0.51 0.55 0.57 0.61 0.64 0.68 0.75 0.82 0.86 0.86 0.91 0.95 0.97 1.00 1.05 1.05 1.09 1.21 1.28 1.32 1.37 1.39
0.86 0.71 0.47 0.41 0.51 0.54 0.46 0.39 0.32 0.32 0.33 0.36 0.34 0.33 0.36 0.39 0.44 0.51 0.51 0.47 0.48 0.51 0.50 0.52 0.56 0.61 0.68 0.71 0.73 0.81 0.84 0.84 0.90 0.99 1.01 1.02 1.02 1.02 1.07 1.14 1.23 1.28 1.30 1.31
0.57 0.41 0.32 0.31 0.32 0.31 0.29 0.31 0.30 0.30 0.33 0.35 0.35 0.33 0.38 0.40 0.44 0.47 0.49 0.51 0.52 0.55 0.53 0.54 0.56 0.63 0.71 0.75 0.73 0.78 0.82 0.83 0.88 0.94 0.99 1.04 1.00 0.95 0.97 1.07 1.19 1.22 1.24 1.20
0.44 0.28 0.27 0.25 0.25 0.25 0.23 0.21 0.21 0.23 0.25 0.28 0.31 0.33 0.38 0.41 0.44 0.50 0.51 0.54 0.55 0.57 0.59 0.60 0.59 0.66 0.72 0.74 0.74 0.77 0.76 0.75 0.81 0.84 0.93 1.04 1.03 0.97 0.96 0.98 1.16 1.29 1.24 1.20
0.40 0.28 0.35 0.29 0.23 0.24 0.23 0.21 0.23 0.24 0.23 0.22 0.26 0.32 0.35 0.38 0.41 0.51 0.56 0.56 0.57 0.58 0.60 0.65 0.65 0.67 0.72 0.74 0.72 0.71 0.73 0.71 0.74 0.79 0.84 0.93 0.98 1.01 1.11 1.11 1.14 1.15 1.15 1.20
0.30 0.22 0.24 0.23 0.21 0.21 0.23 0.22 0.21 0.23 0.25 0.23 0.23 0.27 0.31 0.35 0.39 0.46 0.52 0.56 0.59 0.63 0.64 0.67 0.68 0.71 0.74 0.73 0.73 0.72 0.72 0.72 0.74 0.76 0.79 0.86 0.88 0.88 1.02 1.15 1.20 1.15 1.08 1.10
0.18 0.19 0.19 0.17 0.18 0.19 0.21 0.20 0.18 0.19 0.21 0.22 0.23 0.24 0.26 0.30 0.33 0.41 0.53 0.58 0.59 0.60 0.62 0.66 0.67 0.72 0.78 0.80 0.79 0.76 0.73 0.79 0.80 0.78 0.80 0.85 0.84 0.80 0.84 0.92 1.02 1.09 1.11 1.09
0.14 0.17 0.19 0.16 0.17 0.19 0.21 0.20 0.18 0.20 0.21 0.21 0.21 0.23 0.25 0.28 0.33 0.44 0.53 0.56 0.57 0.57 0.61 0.65 0.67 0.73 0.77 0.83 0.85 0.78 0.77 0.81 0.83 0.81 0.82 0.86 0.84 0.82 0.82 0.84 0.87 0.94 1.01 1.10
0.16 0.16 0.16 0.16 0.18 0.21 0.24 0.24 0.23 0.23 0.25 0.25 0.25 0.26 0.27 0.28 0.32 0.39 0.49 0.55 0.58 0.61 0.65 0.66 0.70 0.79 0.83 0.88 0.89 0.84 0.85 0.93 0.94 0.87 0.86 0.89 0.90 0.91 0.89 0.88 0.90 0.90 0.93 1.02
0.22 0.19 0.18 0.19 0.19 0.22 0.26 0.29 0.28 0.26 0.27 0.27 0.27 0.27 0.26 0.27 0.28 0.33 0.42 0.52 0.58 0.62 0.66 0.69 0.74 0.79 0.84 0.91 0.93 0.90 0.90 0.94 1.01 0.93 0.88 0.94 0.99 0.99 0.95 0.96 0.97 0.94 0.90 0.98
0.22 0.23 0.22 0.22 0.22 0.23 0.25 0.28 0.28 0.27 0.27 0.27 0.26 0.25 0.26 0.29 0.31 0.36 0.42 0.48 0.51 0.52 0.59 0.68 0.76 0.80 0.83 0.90 0.95 0.93 0.91 0.94 0.97 0.95 0.93 0.98 1.05 1.04 1.02 1.01 1.00 0.99 0.95 0.98
0.17 0.18 0.19 0.19 0.19 0.20 0.22 0.26 0.26 0.25 0.26 0.26 0.26 0.28 0.30 0.31 0.34 0.37 0.40 0.41 0.45 0.52 0.60 0.68 0.79 0.76 0.78 0.87 0.97 0.94 0.93 0.97 0.99 1.00 0.96 1.05 1.09 1.06 1.05 1.04 1.03 0.99 1.00 1.00
0.15 0.17 0.18 0.18 0.17 0.18 0.21 0.22 0.24 0.23 0.24 0.26 0.28 0.30 0.32 0.33 0.35 0.37 0.39 0.42 0.50 0.62 0.65 0.72 0.74 0.76 0.78 0.82 0.90 0.93 0.98 1.00 1.02 1.03 1.00 1.01 1.05 1.09 1.07 1.06 1.05 1.04 1.05 1.06
0.18 0.18 0.19 0.20 0.19 0.19 0.21 0.22 0.25 0.25 0.25 0.28 0.31 0.34 0.35 0.34 0.36 0.39 0.42 0.44 0.48 0.58 0.65 0.74 0.76 0.81 0.84 0.88 0.93 0.96 1.02 1.03 1.05 1.08 1.07 1.06 1.06 1.09 1.07 1.08 1.07 1.05 1.05 1.07
0.25 0.24 0.25 0.25 0.24 0.23 0.23 0.24 0.26 0.29 0.30 0.33 0.36 0.37 0.36 0.35 0.36 0.39 0.43 0.49 0.53 0.65 0.71 0.74 0.81 0.94 1.02 1.01 0.93 0.96 1.01 1.02 1.05 1.08 1.10 1.08 1.08 1.11 1.09 1.09 1.11 1.07 1.04 1.05
0.31 0.31 0.31 0.30 0.28 0.27 0.26 0.27 0.30 0.34 0.37 0.38 0.39 0.40 0.40 0.40 0.41 0.44 0.49 0.50 0.56 0.71 0.78 0.84 0.98 1.09 1.13 1.01 0.94 0.96 1.01 1.02 1.04 1.08 1.11 1.10 1.09 1.11 1.11 1.10 1.10 1.09 1.07 1.04
0.34 0.36 0.37 0.37 0.34 0.32 0.32 0.34 0.35 0.39 0.43 0.44 0.45 0.46 0.48 0.47 0.46 0.47 0.53 0.60 0.67 0.78 0.84 0.94 1.06 1.12 1.13 1.03 0.97 0.99 1.03 1.03 1.03 1.07 1.10 1.12 1.13 1.14 1.12 1.11 1.12 1.07 1.02 1.00
0.38 0.38 0.37 0.38 0.39 0.40 0.40 0.41 0.41 0.44 0.46 0.47 0.48 0.49 0.52 0.53 0.55 0.56 0.57 0.62 0.72 0.79 0.84 0.92 1.01 1.07 1.07 1.04 1.00 1.03 1.05 1.07 1.10 1.14 1.15 1.15 1.15 1.14 1.13 1.09 1.07 1.06 1.02 0.98
0.42 0.42 0.42 0.43 0.45 0.47 0.47 0.46 0.49 0.50 0.50 0.50 0.51 0.51 0.54 0.57 0.59 0.61 0.63 0.66 0.72 0.79 0.82 0.87 0.93 1.00 1.03 1.03 1.03 1.04 1.06 1.11 1.14 1.13 1.10 1.11 1.10 1.11 1.10 1.06 1.01 1.00 0.99 0.97
0.46 0.46 0.46 0.47 0.48 0.51 0.53 0.53 0.55 0.57 0.57 0.57 0.58 0.57 0.57 0.60 0.63 0.65 0.67 0.71 0.75 0.80 0.83 0.87 0.92 0.98 1.03 1.05 1.08 1.10 1.09 1.09 1.09 1.10 1.11 1.10 1.07 1.08 1.06 1.04 1.02 0.99 0.97 0.95